EST,Max TemperatureF,Mean TemperatureF,Min TemperatureF,Max Dew PointF,MeanDew PointF,Min DewpointF,Max Humidity, Mean Humidity, Min Humidity, Max Sea Level PressureIn, Mean Sea Level PressureIn, Min Sea Level PressureIn, Max VisibilityMiles, Mean VisibilityMiles, Min VisibilityMiles, Max Wind SpeedMPH, Mean Wind SpeedMPH, Max Gust SpeedMPH,PrecipitationIn, CloudCover, Events, WindDirDegrees
2013-1-1,46,42,39,35,30,23,76,60,42,30.02,29.98,29.90,10,10,10,10,5,,0.00,4,Rain,275
2013-1-2,41,38,33,30,23,14,73,56,44,30.23,30.10,29.99,10,10,10,14,8,,0.00,7,Rain,337
2013-1-3,37,32,27,21,19,15,75,58,48,30.26,30.22,30.17,10,10,10,8,5,,0.00,4,,335
2013-1-4,44,34,24,26,21,18,88,60,40,30.23,30.18,30.12,10,10,9,14,6,,0.00,1,,254
2013-1-5,43,34,26,30,23,19,78,58,43,30.38,30.29,30.17,10,10,10,17,7,,0.00,3,,221
2013-1-6,48,42,35,33,29,25,82,60,41,30.21,30.12,30.05,10,10,10,9,4,,0.00,7,,191
2013-1-7,48,38,28,31,27,23,82,60,42,30.45,30.35,30.15,10,10,10,15,7,,0.00,2,,306
2013-1-8,53,40,28,39,32,24,89,68,47,30.46,30.41,30.38,10,10,10,13,5,20,0.00,3,,188
2013-1-9,62,48,34,47,40,30,89,71,55,30.39,30.34,30.24,10,10,10,14,4,21,0.00,4,,215
2013-1-10,51,44,37,38,30,27,82,57,43,30.59,30.50,30.40,10,10,10,14,6,,0.00,4,,315
2013-1-11,50,41,32,47,40,28,93,87,76,30.51,30.25,30.10,10,6,1,8,2,,0.06,7,Rain,217
2013-1-12,50,46,42,45,43,41,100,93,83,30.17,30.14,30.11,10,2,0,7,4,,0.00,8,Fog,307
2013-1-13,59,50,42,56,45,41,100,95,88,30.16,30.09,30.01,9,2,0,12,5,,0.00,7,Fog,130
2013-1-14,63,56,45,60,51,36,90,80,63,30.27,30.12,29.97,10,10,4,17,10,26,0.19,6,Rain,296
2013-1-15,43,41,39,40,38,36,92,87,81,30.32,30.25,30.13,10,7,1,16,10,22,0.81,8,Rain,7
2013-1-16,45,41,37,41,37,34,93,87,81,30.14,30.02,29.87,10,9,3,15,7,22,0.38,8,Rain-Snow,320
2013-1-17,45,40,35,42,36,32,93,85,73,30.14,30.07,30.00,10,8,5,9,3,,0.88,8,Rain-Snow,347
2013-1-18,39,34,28,34,24,18,93,65,43,30.53,30.34,30.05,10,10,6,21,7,24,0.01,2,,294
2013-1-19,52,42,32,28,25,22,70,54,38,30.46,30.28,30.04,10,10,10,17,8,25,0.00,0,,192
2013-1-20,59,50,41,31,25,12,53,41,25,30.07,29.94,29.85,10,10,10,21,13,31,0.00,0,,243
2013-1-21,45,38,32,35,24,15,73,56,44,30.11,29.97,29.77,10,10,10,23,9,32,0.00,1,,55
2013-1-22,33,27,19,14,1,-5,46,35,27,30.31,30.16,29.93,10,10,10,25,16,33,0.00,1,,304
2013-1-23,28,21,14,12,3,-1,64,42,30,30.37,30.27,30.16,10,10,6,13,7,23,0.00,3,Snow,302
2013-1-24,27,23,19,18,12,1,86,66,34,30.52,30.24,30.07,10,5,0,21,11,30,0.03,6,Snow,359
2013-1-25,26,21,16,19,10,-1,93,62,33,30.51,30.28,30.09,10,7,0,13,7,17,0.06,6,Snow,218
2013-1-26,36,30,25,20,19,17,75,62,50,30.44,30.24,30.09,10,10,10,16,10,25,0.00,7,,316
2013-1-27,35,28,21,23,19,14,78,65,50,30.61,30.53,30.45,10,10,10,7,4,24,0.00,3,,89
2013-1-28,50,42,33,41,32,24,87,73,63,30.52,30.30,30.07,10,8,3,17,6,26,0.10,6,Rain,194
2013-1-29,59,52,44,46,43,40,89,77,62,30.14,30.08,30.03,10,9,6,20,9,24,0.00,4,,146
2013-1-30,71,58,45,59,54,42,90,75,61,30.00,29.74,29.35,10,9,5,16,9,26,0.01,5,Fog-Rain,160
2013-1-31,62,48,33,61,35,13,94,58,28,29.95,29.54,29.18,10,8,1,30,18,40,0.59,5,Rain,245